Check out our new BloomSky Weather System.

Active alerts

Houston, TX
  Details for Houston, TX Dense Fog Advisory


Thunder radar  blitzortung!


Rain radar more information rain snow radar


Visit our other weather sites:

Template documentation
and downloads

And another site



Weather Underground History page Text

Daily Summary for February 1, 2017 Units:  Metric    English   Both
« Previous Day
Next Day »
Daily Weekly Monthly Yearly Custom
  High: Low: Average:
Temperature: 27.3 °C 13.7 °C 20.5 °C
Dew Point: 19.3 °C 12.4 °C 16.8 °C
Humidity: 98 % 53 % 82 %
Wind Speed: 20.9 km/h 0 km/h 6.4 km/h
Wind Gust: 32.2 km/h - -
Wind:- - South
Pressure: 1017.5 hPa 1013.1 hPa -
Precipitation: 0 mm    
Historical Graphs
 
 
Tabular Data for February 1, 2017
Time Temperature Dew Point Pressure Wind Wind Speed Wind Gust Humidity Rainfall Rate (Hourly)
00:01 14.7 °C 12.9 °C 1016.1 hPa Calm   1.6 km/h 89 % 0 mm
00:06 14.6 °C 12.8 °C 1016.1 hPa Calm   1.6 km/h 89 % 0 mm
00:11 14.4 °C 12.6 °C 1016.1 hPa Calm   1.6 km/h 89 % 0 mm
00:16 14.2 °C 12.4 °C 1016.1 hPa Calm     89 % 0 mm
00:21 14 °C 12.4 °C 1015.8 hPa Calm     90 % 0 mm
00:26 13.9 °C 12.5 °C 1015.8 hPa Calm     91 % 0 mm
00:31 13.9 °C 12.5 °C 1015.8 hPa Calm     91 % 0 mm
00:36 13.8 °C 12.4 °C 1015.8 hPa Calm     91 % 0 mm
00:41 13.7 °C 12.4 °C 1015.8 hPa Calm     92 % 0 mm
00:46 13.8 °C 12.5 °C 1015.8 hPa Calm   1.6 km/h 92 % 0 mm
00:51 13.9 °C 12.8 °C 1015.8 hPa Calm   1.6 km/h 93 % 0 mm
00:56 14.1 °C 13 °C 1015.8 hPa Calm   1.6 km/h 93 % 0 mm
01:01 14.2 °C 13.2 °C 1015.8 hPa Calm   1.6 km/h 94 % 0 mm
01:06 14.5 °C 13.5 °C 1015.8 hPa Calm   3.2 km/h 94 % 0 mm
01:11 14.6 °C 13.6 °C 1015.8 hPa Calm   3.2 km/h 94 % 0 mm
01:16 14.7 °C 13.7 °C 1015.8 hPa SE 1.6 km/h 3.2 km/h 94 % 0 mm
01:21 14.7 °C 13.7 °C 1015.8 hPa SE 1.6 km/h 1.6 km/h 94 % 0 mm
01:26 14.8 °C 13.8 °C 1015.8 hPa Calm   1.6 km/h 94 % 0 mm
01:31 14.8 °C 13.8 °C 1015.8 hPa SE 1.6 km/h 3.2 km/h 94 % 0 mm
01:36 14.9 °C 13.9 °C 1015.5 hPa SE 1.6 km/h 3.2 km/h 94 % 0 mm
01:41 14.9 °C 13.9 °C 1015.5 hPa ESE 1.6 km/h 3.2 km/h 94 % 0 mm
01:46 15 °C 14 °C 1015.5 hPa Calm   3.2 km/h 94 % 0 mm
01:51 15 °C 14 °C 1015.5 hPa SE 1.6 km/h 4.8 km/h 94 % 0 mm
01:56 15 °C 14 °C 1015.5 hPa Calm   4.8 km/h 94 % 0 mm
02:01 15 °C 14.2 °C 1015.5 hPa SE 1.6 km/h 4.8 km/h 95 % 0 mm
02:06 15.1 °C 14.3 °C 1015.5 hPa SE 1.6 km/h 3.2 km/h 95 % 0 mm
02:11 15.1 °C 14.3 °C 1015.5 hPa SSE 1.6 km/h 3.2 km/h 95 % 0 mm
02:17 15.1 °C 14.3 °C 1015.5 hPa SSE 3.2 km/h 4.8 km/h 95 % 0 mm
02:22 15.3 °C 14.5 °C 1015.5 hPa Calm   4.8 km/h 95 % 0 mm
02:27 15.2 °C 14.4 °C 1015.1 hPa South 1.6 km/h 4.8 km/h 95 % 0 mm
02:32 15.3 °C 14.5 °C 1015.1 hPa South 1.6 km/h 6.4 km/h 95 % 0 mm
02:37 15.4 °C 14.6 °C 1015.1 hPa SE 1.6 km/h 6.4 km/h 95 % 0 mm
02:42 15.4 °C 14.6 °C 1015.1 hPa SSE 1.6 km/h 6.4 km/h 95 % 0 mm
02:47 15.4 °C 14.6 °C 1015.1 hPa SSE 1.6 km/h 6.4 km/h 95 % 0 mm
02:52 15.4 °C 14.6 °C 1015.1 hPa SSE 3.2 km/h 6.4 km/h 95 % 0 mm
02:57 15.5 °C 14.7 °C 1015.1 hPa Calm   4.8 km/h 95 % 0 mm
03:02 15.4 °C 14.6 °C 1015.1 hPa SSE 1.6 km/h 4.8 km/h 95 % 0 mm
03:07 15.4 °C 14.6 °C 1015.1 hPa SE 3.2 km/h 3.2 km/h 95 % 0 mm
03:12 15.4 °C 14.6 °C 1015.1 hPa SE 1.6 km/h 6.4 km/h 95 % 0 mm
03:17 15.4 °C 14.6 °C 1015.1 hPa SE 1.6 km/h 6.4 km/h 95 % 0 mm
03:22 15.4 °C 14.6 °C 1015.1 hPa Calm   6.4 km/h 95 % 0 mm
03:27 15.3 °C 14.5 °C 1015.1 hPa ESE 3.2 km/h 3.2 km/h 95 % 0 mm
03:32 15.3 °C 14.5 °C 1015.1 hPa SE 1.6 km/h 3.2 km/h 95 % 0 mm
03:37 15.3 °C 14.5 °C 1015.1 hPa SE 1.6 km/h 4.8 km/h 95 % 0 mm
03:42 15.2 °C 14.4 °C 1015.1 hPa Calm   4.8 km/h 95 % 0 mm
03:47 15.2 °C 14.4 °C 1015.1 hPa Calm   4.8 km/h 95 % 0 mm
03:52 15.2 °C 14.4 °C 1015.1 hPa Calm   4.8 km/h 95 % 0 mm
03:57 15.1 °C 14.3 °C 1015.1 hPa SE 1.6 km/h 3.2 km/h 95 % 0 mm
04:02 15.1 °C 14.3 °C 1015.1 hPa Calm   3.2 km/h 95 % 0 mm
04:07 15.1 °C 14.3 °C 1015.5 hPa SE 1.6 km/h 3.2 km/h 95 % 0 mm
04:12 15 °C 14.2 °C 1015.5 hPa Calm   3.2 km/h 95 % 0 mm
04:17 15 °C 14.2 °C 1015.5 hPa Calm   3.2 km/h 95 % 0 mm
04:22 14.9 °C 14.1 °C 1015.5 hPa Calm   3.2 km/h 95 % 0 mm
04:27 14.8 °C 14 °C 1015.1 hPa Calm   3.2 km/h 95 % 0 mm
04:32 14.8 °C 14.2 °C 1015.1 hPa SSE 1.6 km/h 3.2 km/h 96 % 0 mm
04:37 14.8 °C 14.2 °C 1015.1 hPa SSE 1.6 km/h 3.2 km/h 96 % 0 mm
04:42 14.9 °C 14.3 °C 1015.1 hPa SE 1.6 km/h 4.8 km/h 96 % 0 mm
04:47 14.9 °C 14.3 °C 1015.1 hPa SSE 1.6 km/h 4.8 km/h 96 % 0 mm
04:52 15 °C 14.4 °C 1015.1 hPa Calm   4.8 km/h 96 % 0 mm
04:57 15.1 °C 14.5 °C 1015.5 hPa Calm   3.2 km/h 96 % 0 mm
05:02 15 °C 14.4 °C 1015.5 hPa Calm   4.8 km/h 96 % 0 mm
05:07 15 °C 14.4 °C 1015.5 hPa SE 1.6 km/h 4.8 km/h 96 % 0 mm
05:12 14.9 °C 14.3 °C 1015.5 hPa SE 1.6 km/h 4.8 km/h 96 % 0 mm
05:17 14.9 °C 14.4 °C 1015.5 hPa SSW 1.6 km/h 3.2 km/h 97 % 0 mm
05:22 15 °C 14.5 °C 1015.5 hPa SSE 3.2 km/h 3.2 km/h 97 % 0 mm
05:27 15 °C 14.5 °C 1015.5 hPa SE 1.6 km/h 3.2 km/h 97 % 0 mm
05:32 15 °C 14.5 °C 1015.5 hPa ESE 1.6 km/h 3.2 km/h 97 % 0 mm
05:37 15.1 °C 14.6 °C 1015.1 hPa SSE 3.2 km/h 4.8 km/h 97 % 0 mm
05:42 15.1 °C 14.6 °C 1015.5 hPa SSE 1.6 km/h 4.8 km/h 97 % 0 mm
05:47 15.2 °C 14.7 °C 1015.5 hPa Calm   4.8 km/h 97 % 0 mm
05:52 15.2 °C 14.7 °C 1015.5 hPa SE 3.2 km/h 6.4 km/h 97 % 0 mm
05:57 15.3 °C 14.8 °C 1015.5 hPa SE 3.2 km/h 6.4 km/h 97 % 0 mm
06:02 15.3 °C 14.8 °C 1015.5 hPa South 3.2 km/h 6.4 km/h 97 % 0 mm
06:07 15.4 °C 14.9 °C 1015.5 hPa SE 1.6 km/h 6.4 km/h 97 % 0 mm
06:12 15.4 °C 14.9 °C 1015.5 hPa SSW 4.8 km/h 6.4 km/h 97 % 0 mm
06:17 15.4 °C 14.9 °C 1015.5 hPa SSE 1.6 km/h 6.4 km/h 97 % 0 mm
06:22 15.4 °C 14.9 °C 1015.5 hPa SSE 1.6 km/h 6.4 km/h 97 % 0 mm
06:27 15.5 °C 15 °C 1015.5 hPa SE 1.6 km/h 6.4 km/h 97 % 0 mm
06:32 15.5 °C 15 °C 1015.5 hPa Calm   6.4 km/h 97 % 0 mm
06:37 15.6 °C 15.1 °C 1015.5 hPa SSE 3.2 km/h 6.4 km/h 97 % 0 mm
06:42 15.6 °C 15.3 °C 1015.8 hPa SSE 1.6 km/h 6.4 km/h 98 % 0 mm
06:47 15.7 °C 15.2 °C 1015.8 hPa SSE 1.6 km/h 8 km/h 97 % 0 mm
06:52 15.8 °C 15.5 °C 1015.5 hPa South 3.2 km/h 8 km/h 98 % 0 mm
06:57 15.9 °C 15.6 °C 1015.5 hPa SSE 4.8 km/h 11.3 km/h 98 % 0 mm
07:02 16 °C 15.7 °C 1015.5 hPa SSE 3.2 km/h 11.3 km/h 98 % 0 mm
07:07 16.1 °C 15.8 °C 1015.5 hPa South 4.8 km/h 11.3 km/h 98 % 0 mm
07:12 16.2 °C 15.9 °C 1015.5 hPa SSE 3.2 km/h 9.7 km/h 98 % 0 mm
07:17 16.3 °C 16 °C 1015.8 hPa SE 6.4 km/h 8 km/h 98 % 0 mm
07:22 16.4 °C 16.1 °C 1015.8 hPa South 12.9 km/h 12.9 km/h 98 % 0 mm
07:27 16.5 °C 16.2 °C 1015.8 hPa SSW 8 km/h 12.9 km/h 98 % 0 mm
07:32 16.6 °C 16.3 °C 1015.8 hPa South 4.8 km/h 12.9 km/h 98 % 0 mm
07:37 16.7 °C 16.4 °C 1015.8 hPa SSE 3.2 km/h 12.9 km/h 98 % 0 mm
07:42 16.7 °C 16.4 °C 1015.8 hPa SSE 4.8 km/h 11.3 km/h 98 % 0 mm
07:47 16.8 °C 16.5 °C 1015.8 hPa South 4.8 km/h 11.3 km/h 98 % 0 mm
07:52 16.9 °C 16.6 °C 1015.8 hPa SE 3.2 km/h 11.3 km/h 98 % 0 mm
07:57 17 °C 16.7 °C 1015.8 hPa SSE 3.2 km/h 11.3 km/h 98 % 0 mm
08:02 17.2 °C 16.9 °C 1015.8 hPa SSE 3.2 km/h 11.3 km/h 98 % 0 mm
08:07 17.3 °C 17 °C 1016.1 hPa SSE 6.4 km/h 11.3 km/h 98 % 0 mm
08:12 17.4 °C 16.9 °C 1016.1 hPa South 6.4 km/h 9.7 km/h 97 % 0 mm
08:17 17.6 °C 17.1 °C 1016.1 hPa SSE 9.7 km/h 14.5 km/h 97 % 0 mm
08:22 17.7 °C 17.2 °C 1016.1 hPa SSE 9.7 km/h 14.5 km/h 97 % 0 mm
08:27 17.8 °C 17.3 °C 1016.1 hPa South 9.7 km/h 14.5 km/h 97 % 0 mm
08:32 18.1 °C 17.6 °C 1016.1 hPa SSW 4.8 km/h 12.9 km/h 97 % 0 mm
08:37 18.4 °C 17.9 °C 1016.5 hPa South 4.8 km/h 14.5 km/h 97 % 0 mm
08:42 18.6 °C 17.9 °C 1016.5 hPa SE 3.2 km/h 14.5 km/h 96 % 0 mm
08:47 18.9 °C 18.2 °C 1016.5 hPa SE 8 km/h 14.5 km/h 96 % 0 mm
08:52 19.1 °C 18.3 °C 1016.5 hPa SSE 11.3 km/h 14.5 km/h 95 % 0 mm
08:57 19.2 °C 18.4 °C 1016.5 hPa SSE 9.7 km/h 17.7 km/h 95 % 0 mm
09:02 19.4 °C 18.4 °C 1016.5 hPa SSW 4.8 km/h 17.7 km/h 94 % 0 mm
09:07 19.7 °C 18.5 °C 1016.5 hPa SSW 9.7 km/h 17.7 km/h 93 % 0 mm
09:12 19.9 °C 18.6 °C 1016.5 hPa South 11.3 km/h 14.5 km/h 92 % 0 mm
09:18 20.2 °C 18.7 °C 1016.5 hPa SE 4.8 km/h 14.5 km/h 91 % 0 mm
09:23 20.4 °C 18.9 °C 1016.8 hPa SE 4.8 km/h 14.5 km/h 91 % 0 mm
09:28 20.9 °C 19.2 °C 1016.8 hPa SSE 6.4 km/h 14.5 km/h 90 % 0 mm
09:33 21.1 °C 19 °C 1016.8 hPa SE 6.4 km/h 17.7 km/h 88 % 0 mm
09:38 21.2 °C 18.9 °C 1016.8 hPa SSE 3.2 km/h 17.7 km/h 87 % 0 mm
09:43 21.6 °C 19.3 °C 1016.8 hPa South 9.7 km/h 17.7 km/h 87 % 0 mm
09:48 21.7 °C 19.1 °C 1016.8 hPa SSW 12.9 km/h 17.7 km/h 85 % 0 mm
09:53 21.8 °C 19.2 °C 1016.8 hPa SSE 1.6 km/h 17.7 km/h 85 % 0 mm
09:58 21.9 °C 18.9 °C 1016.8 hPa SSE 8 km/h 20.9 km/h 83 % 0 mm
10:03 21.8 °C 18.6 °C 1016.8 hPa South 6.4 km/h 20.9 km/h 82 % 0 mm
10:08 22 °C 19 °C 1016.8 hPa SE 11.3 km/h 20.9 km/h 83 % 0 mm
10:13 22.3 °C 18.9 °C 1016.8 hPa South 12.9 km/h 19.3 km/h 81 % 0 mm
10:18 22.3 °C 18.7 °C 1016.8 hPa SSW 3.2 km/h 27.4 km/h 80 % 0 mm
10:23 22.4 °C 18.8 °C 1016.8 hPa SSE 3.2 km/h 27.4 km/h 80 % 0 mm
10:28 22.5 °C 18.9 °C 1016.8 hPa WNW 8 km/h 27.4 km/h 80 % 0 mm
10:33 22.8 °C 19 °C 1016.8 hPa South 11.3 km/h 22.5 km/h 79 % 0 mm
10:38 22.9 °C 18.9 °C 1016.8 hPa SW 9.7 km/h 17.7 km/h 78 % 0 mm
10:43 22.8 °C 18.8 °C 1016.8 hPa SW 12.9 km/h 19.3 km/h 78 % 0 mm
10:48 22.8 °C 18.8 °C 1016.8 hPa South 12.9 km/h 24.1 km/h 78 % 0 mm
10:53 22.9 °C 18.9 °C 1016.8 hPa SSW 6.4 km/h 24.1 km/h 78 % 0 mm
10:58 23.2 °C 18.5 °C 1016.8 hPa SSW 12.9 km/h 24.1 km/h 75 % 0 mm
11:03 23.3 °C 18.6 °C 1016.8 hPa ESE 11.3 km/h 22.5 km/h 75 % 0 mm
11:08 23.7 °C 18.8 °C 1016.8 hPa SW 16.1 km/h 22.5 km/h 74 % 0 mm
11:13 24.1 °C 18.7 °C 1016.5 hPa SW 11.3 km/h 24.1 km/h 72 % 0 mm
11:15 24 °C 18.6 °C 1016.8 hPa SSW 16.1 km/h 24.1 km/h 72 % 0 mm
11:20 24.2 °C 19.3 °C 1016.5 hPa SSW 6.4 km/h 24.1 km/h 74 % 0 mm
11:25 24.3 °C 18.7 °C 1016.5 hPa South 6.4 km/h 24.1 km/h 71 % 0 mm
11:30 24.1 °C 18.3 °C 1016.5 hPa SSW 11.3 km/h 24.1 km/h 70 % 0 mm
11:35 23.8 °C 18.2 °C 1016.5 hPa SW 9.7 km/h 24.1 km/h 71 % 0 mm
11:40 24.3 °C 18.2 °C 1016.1 hPa SSW 4.8 km/h 24.1 km/h 69 % 0 mm
11:45 24.6 °C 18.5 °C 1016.1 hPa South 16.1 km/h 22.5 km/h 69 % 0 mm
11:50 24.7 °C 18.4 °C 1016.1 hPa SW 17.7 km/h 27.4 km/h 68 % 0 mm
11:55 24.6 °C 18.3 °C 1016.1 hPa South 14.5 km/h 27.4 km/h 68 % 0 mm
12:00 24.5 °C 18.2 °C 1015.8 hPa SSE 9.7 km/h 27.4 km/h 68 % 0 mm
12:05 24.6 °C 18.5 °C 1015.8 hPa SSE 14.5 km/h 25.7 km/h 69 % 0 mm
12:10 25.1 °C 18.8 °C 1015.5 hPa SSE 14.5 km/h 27.4 km/h 68 % 0 mm
12:15 25.3 °C 18.7 °C 1015.5 hPa SW 14.5 km/h 27.4 km/h 67 % 0 mm
12:20 25.5 °C 18.2 °C 1015.5 hPa SSE 17.7 km/h 27.4 km/h 64 % 0 mm
12:25 25.6 °C 18.3 °C 1015.1 hPa SSW 9.7 km/h 27.4 km/h 64 % 0 mm
12:30 25.6 °C 18 °C 1015.1 hPa SSW 11.3 km/h 27.4 km/h 63 % 0 mm
12:35 25.3 °C 17.7 °C 1015.1 hPa WSW 8 km/h 25.7 km/h 63 % 0 mm
12:40 25.4 °C 18.1 °C 1014.8 hPa South 8 km/h 20.9 km/h 64 % 0 mm
12:45 25.7 °C 17.9 °C 1014.8 hPa SSW 14.5 km/h 22.5 km/h 62 % 0 mm
12:50 25.8 °C 17.7 °C 1014.8 hPa South 17.7 km/h 24.1 km/h 61 % 0 mm
12:55 26.1 °C 18.2 °C 1014.8 hPa SSE 16.1 km/h 24.1 km/h 62 % 0 mm
13:00 26.1 °C 18 °C 1014.8 hPa SW 12.9 km/h 25.7 km/h 61 % 0 mm
13:06 26.2 °C 18.6 °C 1014.8 hPa SSW 12.9 km/h 25.7 km/h 63 % 0 mm
13:11 26.3 °C 17.9 °C 1014.4 hPa SSE 12.9 km/h 25.7 km/h 60 % 0 mm
13:16 26.5 °C 18.1 °C 1014.4 hPa SE 11.3 km/h 20.9 km/h 60 % 0 mm
13:21 26.2 °C 18.1 °C 1014.4 hPa South 16.1 km/h 20.9 km/h 61 % 0 mm
13:26 26.1 °C 18 °C 1014.1 hPa South 11.3 km/h 25.7 km/h 61 % 0 mm
13:31 26.3 °C 17.4 °C 1014.1 hPa SW 12.9 km/h 29 km/h 58 % 0 mm
13:36 26.4 °C 17.2 °C 1014.1 hPa SSE 16.1 km/h 29 km/h 57 % 0 mm
13:41 26.4 °C 17.2 °C 1013.8 hPa SE 11.3 km/h 29 km/h 57 % 0 mm
13:46 26.7 °C 17.5 °C 1013.8 hPa SW 20.9 km/h 27.4 km/h 57 % 0 mm
13:51 26.8 °C 17.3 °C 1013.8 hPa SSW 6.4 km/h 27.4 km/h 56 % 0 mm
13:56 26.8 °C 17.6 °C 1013.8 hPa SE 9.7 km/h 27.4 km/h 57 % 0 mm
14:01 27 °C 18 °C 1013.8 hPa SE 9.7 km/h 24.1 km/h 58 % 0 mm
14:06 26.8 °C 17.3 °C 1013.8 hPa SSW 6.4 km/h 19.3 km/h 56 % 0 mm
14:11 26.7 °C 17.7 °C 1013.8 hPa SSW 9.7 km/h 19.3 km/h 58 % 0 mm
14:16 26.9 °C 17.7 °C 1013.4 hPa SSW 12.9 km/h 19.3 km/h 57 % 0 mm
14:21 26.7 °C 17.5 °C 1013.4 hPa South 11.3 km/h 22.5 km/h 57 % 0 mm
14:26 26.6 °C 17.4 °C 1013.4 hPa South 9.7 km/h 22.5 km/h 57 % 0 mm
14:31 26.6 °C 17.4 °C 1013.4 hPa SSE 14.5 km/h 22.5 km/h 57 % 0 mm
14:36 26.8 °C 17.3 °C 1013.4 hPa SSE 14.5 km/h 25.7 km/h 56 % 0 mm
14:41 26.9 °C 17.1 °C 1013.4 hPa SE 12.9 km/h 25.7 km/h 55 % 0 mm
14:46 26.7 °C 16.9 °C 1013.4 hPa South 20.9 km/h 25.7 km/h 55 % 0 mm
14:51 26.7 °C 16.9 °C 1013.4 hPa SW 14.5 km/h 24.1 km/h 55 % 0 mm
14:56 26.9 °C 17.1 °C 1013.1 hPa SW 16.1 km/h 32.2 km/h 55 % 0 mm
15:01 27.1 °C 17 °C 1013.1 hPa SW 11.3 km/h 32.2 km/h 54 % 0 mm
15:06 26.9 °C 16.8 °C 1013.1 hPa SSW 11.3 km/h 32.2 km/h 54 % 0 mm
15:11 27.2 °C 17.1 °C 1013.1 hPa WSW 8 km/h 27.4 km/h 54 % 0 mm
15:16 27.2 °C 17.4 °C 1013.1 hPa SSW 9.7 km/h 27.4 km/h 55 % 0 mm
15:22 27.3 °C 17.5 °C 1013.1 hPa SSW 8 km/h 27.4 km/h 55 % 0 mm
15:27 27.3 °C 16.9 °C 1013.4 hPa South 11.3 km/h 25.7 km/h 53 % 0 mm
15:32 26.9 °C 16.5 °C 1013.4 hPa South 8 km/h 19.3 km/h 53 % 0 mm
15:37 26.7 °C 16.9 °C 1013.4 hPa SE 11.3 km/h 20.9 km/h 55 % 0 mm
15:42 26.9 °C 17.1 °C 1013.4 hPa SSE 8 km/h 20.9 km/h 55 % 0 mm
15:47 26.9 °C 16.5 °C 1013.4 hPa South 12.9 km/h 25.7 km/h 53 % 0 mm
15:52 26.7 °C 16.6 °C 1013.4 hPa SSE 8 km/h 25.7 km/h 54 % 0 mm
15:57 26.7 °C 16.9 °C 1013.4 hPa SSW 11.3 km/h 25.7 km/h 55 % 0 mm
16:02 26.8 °C 16.7 °C 1013.4 hPa SSW 12.9 km/h 20.9 km/h 54 % 0 mm
16:07 26.9 °C 16.8 °C 1013.8 hPa SSW 17.7 km/h 22.5 km/h 54 % 0 mm
16:12 27 °C 17.2 °C 1013.4 hPa SE 8 km/h 22.5 km/h 55 % 0 mm
16:17 26.5 °C 17 °C 1013.8 hPa SW 9.7 km/h 22.5 km/h 56 % 0 mm
16:22 26.4 °C 17.2 °C 1013.8 hPa SSW 14.5 km/h 22.5 km/h 57 % 0 mm
16:27 26.3 °C 17.1 °C 1013.8 hPa SSE 9.7 km/h 22.5 km/h 57 % 0 mm
16:32 26.3 °C 17.1 °C 1013.8 hPa South 11.3 km/h 22.5 km/h 57 % 0 mm
16:37 26.1 °C 16.9 °C 1013.8 hPa SSE 11.3 km/h 19.3 km/h 57 % 0 mm
16:42 26 °C 16.8 °C 1013.8 hPa SSW 9.7 km/h 24.1 km/h 57 % 0 mm
16:47 26.1 °C 17.2 °C 1013.8 hPa South 9.7 km/h 24.1 km/h 58 % 0 mm
16:52 25.9 °C 17 °C 1013.8 hPa SSE 8 km/h 24.1 km/h 58 % 0 mm
16:57 25.8 °C 17.2 °C 1014.1 hPa South 6.4 km/h 19.3 km/h 59 % 0 mm
17:02 25.7 °C 17.4 °C 1014.1 hPa South 6.4 km/h 16.1 km/h 60 % 0 mm
17:07 25.6 °C 17.3 °C 1014.1 hPa SSE 4.8 km/h 16.1 km/h 60 % 0 mm
17:12 25.3 °C 17.2 °C 1014.1 hPa SSE 12.9 km/h 19.3 km/h 61 % 0 mm
17:17 25.1 °C 17.3 °C 1014.1 hPa South 4.8 km/h 22.5 km/h 62 % 0 mm
17:22 25.1 °C 17.3 °C 1014.1 hPa SSE 6.4 km/h 22.5 km/h 62 % 0 mm
17:27 24.9 °C 17.4 °C 1014.1 hPa South 8 km/h 22.5 km/h 63 % 0 mm
17:32 24.8 °C 17.3 °C 1014.1 hPa South 9.7 km/h 19.3 km/h 63 % 0 mm
17:37 24.6 °C 17.3 °C 1014.1 hPa SSE 8 km/h 16.1 km/h 64 % 0 mm
17:42 24.4 °C 17.1 °C 1014.4 hPa SSE 6.4 km/h 16.1 km/h 64 % 0 mm
17:47 24.3 °C 17.3 °C 1014.4 hPa SSW 9.7 km/h 17.7 km/h 65 % 0 mm
17:52 24.2 °C 17.4 °C 1014.4 hPa SW 11.3 km/h 17.7 km/h 66 % 0 mm
17:58 24.1 °C 17.6 °C 1014.4 hPa South 6.4 km/h 20.9 km/h 67 % 0 mm
18:03 23.9 °C 17.6 °C 1014.4 hPa SSW 8 km/h 20.9 km/h 68 % 0 mm
18:08 23.8 °C 17.8 °C 1014.4 hPa South 11.3 km/h 20.9 km/h 69 % 0 mm
18:13 23.7 °C 17.9 °C 1014.4 hPa South 3.2 km/h 19.3 km/h 70 % 0 mm
18:18 23.6 °C 17.8 °C 1014.4 hPa South 6.4 km/h 19.3 km/h 70 % 0 mm
18:23 23.4 °C 17.8 °C 1014.4 hPa SSE 11.3 km/h 14.5 km/h 71 % 0 mm
18:28 23.4 °C 17.8 °C 1014.8 hPa SSW 6.4 km/h 27.4 km/h 71 % 0 mm
18:33 23.3 °C 18 °C 1014.8 hPa SSW 9.7 km/h 27.4 km/h 72 % 0 mm
18:38 23.2 °C 17.9 °C 1014.8 hPa SSW 6.4 km/h 27.4 km/h 72 % 0 mm
18:43 23.1 °C 18 °C 1015.1 hPa South 3.2 km/h 17.7 km/h 73 % 0 mm
18:48 22.9 °C 18 °C 1015.1 hPa SSE 3.2 km/h 12.9 km/h 74 % 0 mm
18:53 22.7 °C 18 °C 1015.1 hPa SSE 3.2 km/h 12.9 km/h 75 % 0 mm
18:58 22.6 °C 18.4 °C 1015.5 hPa SSE 6.4 km/h 9.7 km/h 77 % 0 mm
19:03 22.5 °C 18.5 °C 1015.5 hPa SE 6.4 km/h 11.3 km/h 78 % 0 mm
19:08 22.4 °C 18.6 °C 1015.5 hPa South 9.7 km/h 16.1 km/h 79 % 0 mm
19:13 22.4 °C 18.6 °C 1015.5 hPa South 8 km/h 19.3 km/h 79 % 0 mm
19:18 22.3 °C 18.7 °C 1015.5 hPa South 6.4 km/h 19.3 km/h 80 % 0 mm
19:23 22.2 °C 18.6 °C 1015.8 hPa SE 8 km/h 19.3 km/h 80 % 0 mm
19:28 22.2 °C 18.8 °C 1015.8 hPa SSW 9.7 km/h 16.1 km/h 81 % 0 mm
19:33 22.1 °C 18.7 °C 1015.8 hPa SSE 6.4 km/h 16.1 km/h 81 % 0 mm
19:38 22 °C 18.8 °C 1015.8 hPa SSE 8 km/h 16.1 km/h 82 % 0 mm
19:43 21.9 °C 18.7 °C 1016.1 hPa SE 4.8 km/h 16.1 km/h 82 % 0 mm
19:48 21.8 °C 18.6 °C 1016.1 hPa SSW 3.2 km/h 16.1 km/h 82 % 0 mm
19:53 21.7 °C 18.7 °C 1016.1 hPa South 6.4 km/h 16.1 km/h 83 % 0 mm
19:58 21.6 °C 18.6 °C 1016.1 hPa SSW 11.3 km/h 19.3 km/h 83 % 0 mm
20:03 21.5 °C 18.7 °C 1016.1 hPa SSE 11.3 km/h 19.3 km/h 84 % 0 mm
20:08 21.4 °C 18.6 °C 1016.5 hPa South 9.7 km/h 19.3 km/h 84 % 0 mm
20:13 21.4 °C 18.8 °C 1016.5 hPa South 9.7 km/h 16.1 km/h 85 % 0 mm
20:19 21.3 °C 18.7 °C 1016.5 hPa South 3.2 km/h 17.7 km/h 85 % 0 mm
20:24 21.2 °C 18.8 °C 1016.5 hPa South 6.4 km/h 17.7 km/h 86 % 0 mm
20:29 21.2 °C 18.8 °C 1016.5 hPa SSE 8 km/h 17.7 km/h 86 % 0 mm
20:34 21.1 °C 18.7 °C 1016.5 hPa South 6.4 km/h 14.5 km/h 86 % 0 mm
20:39 21.1 °C 18.7 °C 1016.5 hPa ESE 6.4 km/h 14.5 km/h 86 % 0 mm
20:44 21.1 °C 18.7 °C 1016.5 hPa SSW 11.3 km/h 16.1 km/h 86 % 0 mm
20:49 21 °C 18.6 °C 1016.5 hPa SSE 9.7 km/h 22.5 km/h 86 % 0 mm
20:54 21 °C 18.8 °C 1016.5 hPa SSE 9.7 km/h 22.5 km/h 87 % 0 mm
20:59 20.9 °C 18.7 °C 1016.5 hPa SSE 4.8 km/h 22.5 km/h 87 % 0 mm
21:04 20.9 °C 18.7 °C 1016.8 hPa SSE 3.2 km/h 19.3 km/h 87 % 0 mm
21:09 20.8 °C 18.6 °C 1016.8 hPa SSW 4.8 km/h 19.3 km/h 87 % 0 mm
21:14 20.7 °C 18.5 °C 1016.8 hPa SSE 3.2 km/h 12.9 km/h 87 % 0 mm
21:19 20.7 °C 18.5 °C 1016.8 hPa SSE 6.4 km/h 12.9 km/h 87 % 0 mm
21:24 20.6 °C 18.5 °C 1017.2 hPa SW 3.2 km/h 11.3 km/h 88 % 0 mm
21:29 20.5 °C 18.4 °C 1017.2 hPa SSE 3.2 km/h 9.7 km/h 88 % 0 mm
21:34 20.5 °C 18.4 °C 1017.2 hPa SSE 9.7 km/h 9.7 km/h 88 % 0 mm
21:39 20.5 °C 18.4 °C 1017.2 hPa SE 6.4 km/h 11.3 km/h 88 % 0 mm
21:44 20.5 °C 18.4 °C 1017.2 hPa SSE 6.4 km/h 11.3 km/h 88 % 0 mm
21:49 20.4 °C 18.3 °C 1017.2 hPa South 8 km/h 11.3 km/h 88 % 0 mm
21:54 20.4 °C 18.3 °C 1017.2 hPa SSE 6.4 km/h 11.3 km/h 88 % 0 mm
21:59 20.4 °C 18.5 °C 1017.2 hPa SSW 8 km/h 12.9 km/h 89 % 0 mm
22:04 20.3 °C 18.4 °C 1017.2 hPa SSE 4.8 km/h 12.9 km/h 89 % 0 mm
22:09 20.3 °C 18.4 °C 1017.2 hPa South 4.8 km/h 12.9 km/h 89 % 0 mm
22:14 20.3 °C 18.4 °C 1017.2 hPa SSW 3.2 km/h 12.9 km/h 89 % 0 mm
22:20 20.3 °C 18.4 °C 1017.5 hPa SSE 4.8 km/h 8 km/h 89 % 0 mm
22:25 20.2 °C 18.3 °C 1017.2 hPa SSW 1.6 km/h 8 km/h 89 % 0 mm
22:30 20.2 °C 18.3 °C 1017.5 hPa SSW 1.6 km/h 8 km/h 89 % 0 mm
22:35 20.2 °C 18.3 °C 1017.5 hPa SE 4.8 km/h 8 km/h 89 % 0 mm
22:40 20.1 °C 18.4 °C 1017.5 hPa South 9.7 km/h 9.7 km/h 90 % 0 mm
22:45 20.1 °C 18.4 °C 1017.5 hPa SE 3.2 km/h 9.7 km/h 90 % 0 mm
22:50 20.2 °C 18.5 °C 1017.5 hPa SE 6.4 km/h 9.7 km/h 90 % 0 mm
22:55 20.2 °C 18.5 °C 1017.5 hPa ESE 9.7 km/h 9.7 km/h 90 % 0 mm
23:00 20.2 °C 18.5 °C 1017.5 hPa South 4.8 km/h 11.3 km/h 90 % 0 mm
23:05 20.2 °C 18.5 °C 1017.5 hPa South 4.8 km/h 11.3 km/h 90 % 0 mm
23:10 20.3 °C 18.6 °C 1017.5 hPa SE 4.8 km/h 11.3 km/h 90 % 0 mm
23:15 20.3 °C 18.6 °C 1017.5 hPa SSE 3.2 km/h 9.7 km/h 90 % 0 mm
23:20 20.3 °C 18.6 °C 1017.5 hPa SSE 4.8 km/h 9.7 km/h 90 % 0 mm
23:25 20.3 °C 18.6 °C 1017.5 hPa SSW 4.8 km/h 9.7 km/h 90 % 0 mm
23:30 20.3 °C 18.6 °C 1017.5 hPa SSE 4.8 km/h 8 km/h 90 % 0 mm
23:35 20.3 °C 18.6 °C 1017.5 hPa South 6.4 km/h 11.3 km/h 90 % 0 mm
23:36 20.3 °C 18.6 °C 1017.5 hPa SW 1.6 km/h 11.3 km/h 90 % 0 mm
23:41 20.3 °C 18.6 °C 1017.5 hPa South 4.8 km/h 11.3 km/h 90 % 0 mm
23:46 20.3 °C 18.6 °C 1017.5 hPa SSE 3.2 km/h 11.3 km/h 90 % 0 mm
23:51 20.2 °C 18.5 °C 1017.5 hPa SSE 6.4 km/h 11.3 km/h 90 % 0 mm
23:56 20.2 °C 18.5 °C 1017.5 hPa SSE 4.8 km/h 11.3 km/h 90 % 0 mm
Spring, Texas: Villages of Bridgestone
Compliments of Weather Underground - 2.75 mb

Script developed by  Jim McMurry - jmcmurry@mwt.net Adapted for the template by  Wim van der Kuil - Leuven-Template.eu

You find our weather info also at:

UK Metoffice

WeatherCloud

Weather Underground

Mid-South Weather Network

AWEKAS

Citizen Weather Observer Program (CWOP)

HAMweather, WeatherForYou, PWS Weather

Equipment we use:

Weather-station
Davis Vantage Vue

Weather-program
Meteohub

Weather-server
Debian 7.9 x86 (Guest)

Provider
DreamHost

Davis Vantage Vue

Meteohub

Debian 7.9 x86 (Guest)

DreamHost